Location: *
(43.0409°N, 0.1694°E)
Time: 11:50:07
(UTC+00:00)

Cosmos 1500 Rocket - Pass Details

Date: 03 October 2023
Orbit: 600 x 629 km, 82.5° (Epoch: 01 December)

Event Time Altitude Azimuth Distance (km) Brightness Sun altitude
Rises 03:56:23 0° 347° (NNW) 2,895 7.1 -22.9°
Reaches altitude 10° 03:58:39 10° 344° (NNW) 1,980 6.1 -22.5°
Enters shadow 04:01:50 43° 319° (NW) 858 4.0 -21.9°
